Retour au catalogue

COSMOS 1275 DEB

ActifPO
NORAD 13799·DEBRIS·🇷🇺 Russia

Lancé Jun 4, 1981 depuis Plesetsk Cosmodrome

Loading…

Prochains Passages (prochaines 24 heures)

TLE

FraisSource: Space-Track

Époque: Sep 14, 2026, 19:39 UTC

1 13799U 81053GT  26257.81878264  .00000683  00000-0  62717-3 0  9995
2 13799  83.1307 285.8641 0087036 230.8744 305.9786 13.79876097196369

Suivez COSMOS 1275 DEB en temps réel avec AllMySat

Download on the App Store